Theta_e
318 317 318 318 319 319 320 322 324 326 329 329 329 329 328 328 327 327 327 329 330 331 331 331 330 330 330 330 330 329 328 328 327 326 326 326 326 326 326 325 324 324 323
318 318 318 318 318 319 319 319 319 321 322 326 329 329 328 328 328 329 330 331 330 330 330 330 331 330 330 330 330 330 330 330 329 328 325 323 324 325 326 325 322 319 319
319 318 317 317 317 318 318 318 319 319 321 324 326 329 329 328 329 331 331 329 329 329 329 330 330 330 330 330 330 330 330 329 328 327 326 325 324 325 326 326 324 324 323
319 318 318 318 317 317 317 317 318 319 321 322 324 325 328 328 326 325 324 325 325 325 326 326 327 327 328 329 329 329 329 329 328 328 327 327 326 325 325 325 326 325 325
318 318 317 317 317 317 317 317 316 317 317 317 317 318 318 317 316 316 317 319 321 324 325 325 326 327 327 327 328 329 330 330 328 328 329 328 328 327 325 325 325 324 325
318 317 318 317 317 317 316 316 316 315 315 315 315 315 315 315 315 315 315 315 314 314 313 314 316 318 319 319 322 324 325 326 327 328 328 329 328 327 327 326 325 325 325
317 317 317 317 317 316 316 315 315 315 315 315 315 314 314 314 315 315 315 315 315 315 314 314 313 313 313 313 313 314 316 318 320 322 324 326 327 328 328 327 327 327 327
317 317 317 317 316 316 315 315 315 315 314 314 313 312 312 312 313 314 314 314 313 312 310 309 308 307 307 307 309 311 312 312 313 313 314 314 317 320 323 325 326 326 326
318 317 316 316 316 315 315 315 315 314 314 311 308 309 309 309 309 310 310 310 310 309 308 307 306 306 305 305 304 304 305 307 309 311 312 312 314 315 315 316 319 322 323
317 317 316 315 315 315 314 314 314 313 311 307 307 308 308 308 308 308 308 308 307 307 306 305 304 304 304 304 304 304 304 305 305 309 313 313 314 316 316 317 318 319 321
317 316 316 315 315 315 314 314 314 312 309 306 307 307 307 308 308 308 307 307 307 306 304 303 302 302 303 303 303 305 305 306 308 310 309 309 310 312 313 314 314 315 316
316 316 315 314 314 314 313 312 311 309 306 306 307 306 305 305 306 306 305 304 303 301 300 300 300 300 300 301 303 303 305 306 305 305 306 308 309 309 310 310 311 312 313
316 315 314 313 312 312 311 310 309 306 306 306 306 305 305 304 303 301 300 299 297 296 295 296 296 297 299 300 300 304 304 301 302 304 306 306 305 306 304 305 308 309 310
315 314 312 311 311 310 309 308 306 306 306 305 304 303 301 299 297 295 293 292 291 291 291 291 291 293 296 296 298 298 299 300 301 302 301 301 299 297 298 304 305 307 310
313 312 311 310 309 308 307 305 306 306 304 302 300 298 296 293 291 291 291 290 290 290 290 290 290 291 292 292 295 295 296 297 299 297 297 296 295 294 300 295 296 300 305
311 310 310 309 308 305 305 307 306 304 301 298 295 292 291 291 290 290 290 289 289 289 289 289 289 289 289 290 291 291 295 297 295 295 294 293 292 294 292 291 293 296 302
310 310 309 307 304 306 306 305 303 300 296 292 290 290 290 290 289 289 288 288 288 288 288 288 288 288 288 289 291 293 295 292 291 292 292 290 292 297 293 291 291 293 297
309 308 306 305 306 306 304 302 298 294 290 290 290 289 289 288 288 288 288 288 287 287 287 287 287 287 287 288 291 292 291 290 288 289 288 288 295 294 292 291 292 293 297
308 306 305 305 305 303 302 298 293 290 290 290 289 288 288 288 287 287 287 287 287 286 286 286 286 287 288 289 289 288 287 287 288 289 289 292 293 293 293 293 293 295 298
306 306 305 305 304 301 298 293 290 289 289 288 288 287 287 287 287 286 286 286 286 286 286 286 286 286 287 287 287 288 289 289 289 290 291 291 292 292 292 292 294 296 297
307 306 305 305 305 301 293 290 289 288 288 287 287 287 287 286 286 286 286 285 285 285 285 285 285 286 286 287 288 288 289 289 290 290 290 289 289 290 291 293 295 295 294
306 305 304 305 303 293 289 288 287 287 287 287 287 286 286 286 285 285 285 285 285 285 284 285 285 286 286 287 287 288 289 290 289 289 288 289 289 290 292 293 293 292 293
304 304 303 301 296 289 288 287 287 287 287 286 286 286 286 285 285 284 284 284 284 284 284 285 285 286 286 286 287 288 289 288 288 288 288 288 289 290 290 290 291 291 292
302 301 300 294 288 288 287 287 286 286 286 286 286 285 285 284 284 284 284 283 284 284 284 285 286 286 286 286 286 288 287 287 287 287 286 287 287 287 287 288 289 289 290
300 297 292 288 288 287 287 286 286 286 285 285 285 285 284 284 283 283 283 283 283 284 285 285 285 285 286 286 287 287 287 287 287 286 285 285 284 284 285 287 288 288 289
295 292 288 288 287 286 286 286 286 285 285 285 284 284 284 283 283 283 283 283 283 284 284 284 285 285 285 286 286 286 286 286 285 284 284 283 283 284 285 286 287 287 288
Wind_Speed
10 10 10 9 7 4 8 7 11 18 25 27 27 26 25 24 25 25 26 27 28 30 32 34 34 34 36 37 37 38 39 41 42 43 46 47 46 46 47 47 48 48 48
10 11 12 14 15 15 13 9 6 11 11 10 21 28 29 29 27 25 25 26 27 27 28 28 29 29 30 31 33 34 36 39 39 41 38 31 38 43 43 37 30 31 32
10 11 12 13 13 15 16 15 13 8 8 8 6 12 20 24 23 22 23 24 24 24 25 25 27 27 30 30 30 31 33 36 36 38 35 17 19 30 34 33 31 37 38
8 9 11 12 14 16 15 15 13 9 6 5 4 3 6 11 13 17 18 19 20 23 22 22 22 24 25 27 28 31 33 35 37 35 39 43 44 29 31 39 38 36 43
8 10 11 13 13 13 14 13 13 13 14 13 12 10 8 10 10 11 11 11 11 12 13 15 17 17 18 23 27 30 35 36 38 39 40 42 44 46 43 35 44 43 42
9 9 9 9 10 11 11 12 13 14 14 12 12 13 13 12 12 12 13 13 13 13 13 14 16 18 19 20 22 26 29 31 34 38 40 40 34 35 35 37 39 41 51
9 8 6 6 7 9 10 11 12 12 13 13 14 15 14 13 14 15 16 18 20 20 21 21 20 20 19 20 20 22 25 29 32 35 36 39 42 42 42 42 44 41 42
8 6 5 5 6 8 8 8 8 9 10 12 13 12 12 13 14 15 18 20 21 23 23 24 25 25 26 27 28 28 28 28 29 31 33 34 36 38 40 43 42 42 44
9 7 5 5 7 5 5 5 7 8 9 12 13 14 14 16 18 19 20 21 22 23 25 27 29 29 29 28 28 29 30 31 33 35 36 34 35 34 34 36 39 40 44
12 7 6 7 6 2 2 2 5 9 12 14 15 16 18 19 21 23 24 25 26 29 32 34 35 34 32 31 31 31 31 31 30 29 29 31 31 32 33 35 36 37 40
12 8 8 8 7 4 3 2 8 12 14 15 16 18 20 23 24 26 28 30 32 34 36 37 36 35 34 34 32 31 31 30 29 29 34 34 33 36 37 38 40 42 41
13 11 10 10 8 5 3 8 12 14 15 17 18 21 23 26 27 28 29 31 33 34 33 33 34 35 36 34 33 33 28 31 37 37 35 32 31 32 34 37 40 43 43
16 13 13 12 8 4 5 10 13 16 18 19 21 23 24 26 27 29 30 30 31 31 32 32 32 33 33 34 33 29 34 37 36 32 28 32 34 39 40 37 38 41 43
17 17 15 11 7 4 7 10 14 17 20 22 24 25 25 26 26 27 29 31 31 32 32 32 32 31 32 32 31 35 36 38 34 30 32 36 37 36 35 34 36 36 39
20 18 14 9 4 5 7 12 16 20 21 21 22 21 22 25 27 28 30 30 30 31 32 33 34 32 33 32 32 35 38 39 34 34 36 39 37 35 27 33 36 35 41
21 17 13 9 7 5 9 15 18 20 21 20 20 22 25 27 28 28 29 29 30 30 31 31 32 34 34 32 33 35 39 31 32 38 39 39 40 35 35 35 33 33 33
21 18 14 8 4 9 14 16 18 18 16 18 20 22 25 26 26 27 28 29 30 31 33 33 32 33 32 31 30 34 29 36 38 40 43 43 38 37 40 39 39 41 36
20 15 8 4 7 14 15 16 16 15 18 21 23 24 25 26 27 28 29 31 32 33 34 34 33 33 33 28 29 29 40 45 44 40 45 38 37 42 37 40 44 44 45
16 10 4 6 14 16 17 16 14 18 21 23 24 24 26 27 29 30 32 32 34 35 34 33 33 30 28 27 31 38 42 41 40 39 35 32 38 38 35 39 43 44 49
9 3 7 11 17 18 16 16 19 21 22 24 24 24 25 27 29 30 32 33 33 35 34 34 31 29 27 32 34 33 35 36 36 37 37 36 36 38 39 39 39 45 45
6 8 12 18 25 21 17 18 20 22 23 24 25 25 26 28 30 32 32 34 35 36 36 36 34 31 30 35 32 32 32 33 35 36 38 41 43 41 41 37 36 37 41
10 11 15 21 23 15 17 18 20 22 23 24 26 27 29 30 32 32 34 35 36 37 38 37 35 33 34 34 32 30 29 32 37 38 41 42 43 38 36 32 33 35 37
12 12 20 19 13 14 16 19 21 23 25 26 28 30 31 32 32 34 36 37 36 36 37 34 34 36 39 37 35 32 33 36 36 36 37 40 36 33 32 30 33 36 41
12 14 12 10 13 15 17 19 22 24 26 29 31 32 34 34 34 35 36 36 35 35 32 33 35 36 38 37 36 36 40 39 38 38 42 36 32 31 32 34 36 39 39
11 9 10 13 15 17 18 20 21 24 27 30 32 33 33 34 36 37 37 35 34 26 31 34 35 36 37 37 34 35 35 36 34 38 37 35 38 37 38 36 38 39 42
8 10 12 15 17 19 20 22 22 25 28 32 33 32 32 35 38 40 41 37 33 30 28 29 27 31 29 31 34 33 33 30 34 34 31 36 37 36 37 38 42 42 43
Wind_Direction
83 72 61 53 38 330 276 290 277 267 261 257 256 262 270 282 291 293 290 296 300 300 298 297 297 296 292 292 290 287 283 283 283 282 281 282 282 280 278 278 277 276 274
91 75 69 64 59 55 48 30 292 285 301 291 265 260 265 273 280 287 291 297 302 305 304 303 303 302 300 299 296 293 291 288 286 281 278 275 282 281 286 289 285 288 284
83 72 68 65 64 60 51 42 32 7 318 326 298 272 270 275 282 287 292 294 295 298 299 299 299 298 299 297 297 298 296 293 292 287 270 273 263 285 286 285 284 285 286
94 80 73 71 63 58 52 46 41 37 18 350 321 303 277 283 294 299 302 304 304 303 302 302 300 299 301 298 295 293 294 293 291 290 283 276 270 270 282 283 283 280 283
102 85 74 70 67 62 53 49 45 46 42 35 37 34 31 23 13 4 354 343 333 325 320 318 322 315 311 304 298 296 293 291 290 289 287 285 279 271 259 273 281 282 281
113 94 90 86 70 58 51 43 40 46 47 48 50 48 42 33 22 15 6 1 357 354 349 335 326 322 320 317 308 304 301 300 289 285 284 277 266 271 269 263 266 273 285
132 121 112 94 70 53 46 42 41 46 43 40 35 30 24 13 7 1 351 342 336 334 331 328 324 323 321 316 313 309 303 299 298 296 294 289 281 276 270 268 273 273 276
146 152 141 109 72 53 42 34 27 27 25 22 18 9 0 354 347 340 335 331 328 326 324 323 322 320 316 311 306 302 301 301 302 302 302 301 296 293 289 283 281 281 280
183 172 136 104 78 62 34 19 8 10 8 2 359 359 354 349 345 340 334 328 324 323 320 319 319 317 316 314 312 308 304 302 299 299 300 301 302 304 302 295 290 282 286
185 173 145 116 129 115 54 10 359 356 353 352 352 350 344 337 333 331 328 327 324 324 324 323 322 320 317 317 316 313 311 311 308 307 305 300 299 297 298 299 299 295 285
182 168 147 158 163 175 199 342 335 339 342 346 343 340 336 332 330 328 325 323 322 323 324 324 323 324 324 323 321 318 318 319 316 311 312 308 304 301 301 299 298 298 296
179 163 167 172 175 191 264 316 331 338 343 341 337 331 325 322 319 319 321 321 322 321 322 322 322 324 325 325 326 325 325 321 315 314 315 313 314 308 305 304 303 299 297
170 168 173 181 192 221 295 319 330 336 335 332 326 323 325 325 326 327 327 326 326 325 323 323 324 324 325 325 326 328 318 319 317 319 315 315 316 312 310 305 301 300 299
177 184 188 192 206 261 308 318 327 329 327 323 322 324 326 329 330 329 327 327 327 326 325 324 322 321 319 322 324 320 321 320 321 316 316 316 319 316 312 309 308 306 303
181 193 198 196 212 270 306 328 328 326 323 324 327 331 331 330 330 330 330 331 331 330 328 326 324 321 319 322 318 317 318 320 321 317 318 315 315 316 318 312 310 302 300
189 191 196 208 241 296 330 327 325 321 322 323 327 329 329 331 332 333 336 336 335 335 333 331 328 325 322 316 314 320 322 321 315 316 315 315 315 317 315 317 313 310 303
198 203 208 221 296 324 327 323 318 319 320 325 327 329 331 333 337 339 339 339 336 335 333 331 329 325 321 321 321 327 312 320 323 319 315 315 313 310 316 316 314 311 311
200 197 203 255 319 327 323 318 317 319 323 326 329 333 335 337 338 339 339 337 335 332 329 329 327 324 320 320 328 315 314 315 316 315 312 314 311 310 317 319 315 312 317
198 199 216 317 328 327 323 317 314 318 321 327 330 335 337 336 336 335 334 333 331 329 330 329 327 325 322 324 319 313 313 313 317 321 318 319 313 316 316 315 312 315 316
192 237 298 322 333 323 317 314 318 323 327 329 331 333 333 332 331 331 332 332 329 328 329 328 329 326 321 316 318 323 320 321 323 323 321 319 314 312 313 312 313 311 310
243 279 308 321 322 311 308 316 323 326 327 327 328 329 330 330 331 330 331 331 330 330 331 329 330 330 320 320 320 321 322 322 321 322 320 320 315 314 313 312 310 310 310
253 288 301 316 312 307 315 321 324 324 325 324 325 327 328 330 330 331 332 332 331 331 331 330 326 322 322 323 323 325 322 321 320 320 321 321 317 319 317 312 310 316 319
273 297 313 310 302 303 318 324 326 326 324 324 325 325 326 328 331 333 331 331 332 331 329 324 321 320 324 328 330 326 323 321 324 320 320 318 320 317 314 318 318 325 327
285 310 308 302 305 315 322 322 324 323 322 322 323 325 327 329 330 332 331 329 328 327 324 319 318 318 320 323 328 323 327 328 325 328 322 323 320 319 318 325 334 332 328
299 293 295 305 311 315 319 323 325 322 320 320 323 325 324 326 328 329 329 325 323 319 318 316 317 319 319 322 320 323 324 324 328 324 321 327 328 330 332 333 336 331 331
279 292 300 304 313 317 321 327 324 320 320 320 321 322 323 326 327 326 324 322 323 320 319 317 319 318 315 318 321 322 321 329 331 326 328 329 331 330 330 327 330 333 330